Content
SEND FEEDBACK

Daily
Averages
Monthly
Summary
United States of America

CANTON, SOUTH DAKOTA


Home > North America > United States > South Dakota
Elevation: 1323 feet     Latitude: 43 18N     Longitude: 096 40W

WEATHER
 
SELECT A DAY
Number of Records: 202,899;   Date Range: 1/1/95 - 7/23/14
 
SHARE

PRINT THIS DATA

[ ← Previous Day ]
WEATHER ALMANAC - FEBRUARY 16, 2013
[ Next Day → ]
[ °C ]   °F
Weather ElementAverageHighLow
Temperature21.6 °F33.1 °F (2:56 pm)6.1 °F (1:56 am)
Dewpoint16.7 °F27 °F (5:56 pm)3 °F (2:56 am)
Humidity81.9 %92 % (4:56 am)66 % (1:56 pm)
Barometer30.13 in30.32 in (1:56 am)29.97 in (11:56 pm)
Wind Speed5.7 mph10.4 mph (2:56 pm)
Weather ElementAverage
Visibility10 mi
Wind DirectionESE (116.7 °)

Weather ElementTotal
Precipitation---
Heating Degree Days45.4 (Base 65)
Averaged from 27 records on February 16, 2013
WEATHER CONDITIONS BREAKOUT
WIND DIRECTION BREAKOUT
WEATHER BY HOUR - FEBRUARY 16, 2013
[ °C ]   °F
Local TimeTemperatureDewpointHumidityBarometerVisibilityWind DirectionWind SpeedGust SpeedPrecipitationEventsConditions
1:56 AM6.1 °F3.9 °F91 %30.32 in10.0 miCalmClear
2:56 AM6.1 °F3.0 °F87 %30.29 in10.0 miCalmClear
3:06 AM6.8 °F3.2 °F85 %30.19 in10.0 miCalmPartly Cloudy
3:22 AM6.8 °F3.2 °F85 %30.20 in10.0 miCalmMostly Cloudy
3:34 AM8.6 °F5.0 °F85 %30.19 in10.0 miNorthScattered Clouds
3:56 AM9.0 °F6.1 °F88 %30.27 in10.0 miNorthClear
4:56 AM10.4 °F8.6 °F92 %30.15 in10.0 miCalmMostly Cloudy
5:56 AM12.0 °F9.0 °F88 %30.22 in10.0 miESE (120°)4.6 mphMostly Cloudy
6:56 AM12.0 °F9.0 °F88 %30.21 in10.0 miESE (110°)4.6 mphOvercast
7:56 AM12.9 °F10.0 °F88 %30.19 in10.0 miSE (140°)5.8 mphOvercast
8:56 AM17.1 °F12.9 °F84 %30.17 in10.0 miSE (140°)5.8 mphMostly Cloudy
9:56 AM21.0 °F15.1 °F78 %30.16 in10.0 miSE (130°)5.8 mphScattered Clouds
10:56 AM24.1 °F17.1 °F75 %30.15 in10.0 miSouth (170°)6.9 mphClear
11:56 AM27.0 °F18.0 °F69 %30.14 in10.0 miSouth (180°)4.6 mphClear
12:56 PM30.0 °F21.0 °F69 %30.10 in10.0 miSE (130°)6.9 mphClear
1:56 PM32.0 °F21.9 °F66 %30.08 in10.0 miSE (140°)5.8 mphClear
2:56 PM33.1 °F25.0 °F72 %30.07 in10.0 miSouth (170°)10.4 mphScattered Clouds
3:35 PM32.0 °F24.8 °F75 %29.99 in10.0 miSouth (170°)10.4 mphMostly Cloudy
3:56 PM32.0 °F24.1 °F73 %30.06 in10.0 miSSW (210°)9.2 mphMostly Cloudy
4:56 PM32.0 °F26.1 °F79 %30.06 in10.0 miSouth (170°)9.2 mphOvercast
5:56 PM32.0 °F27.0 °F82 %30.06 in10.0 miSouth (180°)8.1 mphOvercast
6:56 PM30.9 °F27.0 °F85 %30.07 in10.0 miSouth (180°)9.2 mphOvercast
7:56 PM30.9 °F27.0 °F85 %30.06 in10.0 miSouth (180°)6.9 mphOvercast
8:56 PM30.0 °F26.1 °F85 %30.05 in10.0 miSouth (170°)9.2 mphOvercast
9:56 PM30.0 °F26.1 °F85 %30.05 in10.0 miSouth (180°)6.9 mphOvercast
10:56 PM28.9 °F25.0 °F85 %30.04 in10.0 miESE (120°)5.8 mphMostly Cloudy
11:56 PM28.4 °F24.8 °F86 %29.97 in10.0 miSSE (160°)6.9 mphOvercast
Hourly data recorded from KFSD, located miles away from Canton, South Dakota







STORIES FROM OUR PARTNERS